VK5TRM-14 Weather Reports


time (UTC)temp
F
wind
direction
speed
knots
gust
knots
rain 1hr
in
rain 24hr
in
rain mn
in
humidity
%
barometer
mb
20260510120005 51 202 4.3 4.3 0.00 0.00 0.00 85 1029.4
20260510114504 51 202 4.3 4.3 0.00 0.00 0.00 85 1029.4
20260510113005 49 247 4.3 5.2 0.00 0.00 0.00 83 1029.3
20260510111505 49 247 4.3 5.2 0.00 0.00 0.00 83 1029.3
20260510110005 50 247 2.6 4.3 0.00 0.00 0.00 81 1029.3
20260510104505 50 247 2.6 4.3 0.00 0.00 0.00 81 1029.3
20260510103005 52 270 2.6 2.6 0.00 0.00 0.00 79 1029.2
20260510101505 52 270 2.6 2.6 0.00 0.00 0.00 79 1029.2
20260510100005 53 0 0.0 0.0 0.00 0.00 0.00 77 1029.0
20260510094505 53 0 0.0 0.0 0.00 0.00 0.00 77 1029.0
20260510093005 55 0 0.0 0.0 0.00 0.00 0.00 73 1028.7
20260510091505 55 0 0.0 0.0 0.00 0.00 0.00 73 1028.7
20260510090005 57 0 0.0 0.0 0.00 0.00 0.00 70 1028.4
20260510084506 57 0 0.0 0.0 0.00 0.00 0.00 70 1028.4
20260510083005 62 0 0.0 0.0 0.00 0.00 0.00 61 1028.2
20260510081506 62 0 0.0 0.0 0.00 0.00 0.00 61 1028.2
20260510080005 65 157 2.6 4.3 0.00 0.00 0.00 55 1027.9
20260510074505 65 157 2.6 4.3 0.00 0.00 0.00 55 1027.9
20260510073005 67 157 5.2 7.8 0.00 0.00 0.00 53 1027.8
20260510071505 67 157 5.2 7.8 0.00 0.00 0.00 53 1027.8
20260510070005 67 225 4.3 6.1 0.00 0.00 0.00 55 1027.8
20260510064505 67 225 4.3 6.1 0.00 0.00 0.00 55 1027.8
20260510063005 68 157 5.2 7.0 0.00 0.00 0.00 52 1027.7
20260510061505 68 157 5.2 7.0 0.00 0.00 0.00 52 1027.7
20260510060005 67 157 5.2 7.0 0.00 0.00 0.00 58 1027.8
20260510054505 67 157 5.2 7.0 0.00 0.00 0.00 58 1027.8
20260510053005 68 112 0.9 4.3 0.00 0.00 0.00 55 1027.9
20260510051505 68 112 0.9 4.3 0.00 0.00 0.00 55 1027.9
20260510050005 67 157 4.3 8.7 0.00 0.00 0.00 55 1027.9
20260510044504 67 157 4.3 8.7 0.00 0.00 0.00 55 1027.9
20260510043005 67 180 4.3 6.1 0.00 0.00 0.00 57 1028.1
20260510041505 67 180 4.3 6.1 0.00 0.00 0.00 57 1028.1
20260510040005 66 135 4.3 7.8 0.00 0.00 0.00 58 1028.2
20260510034505 66 135 4.3 7.8 0.00 0.00 0.00 58 1028.2
20260510033004 66 157 5.2 7.8 0.00 0.00 0.00 61 1028.6
20260510031505 66 157 5.2 7.8 0.00 0.00 0.00 61 1028.6
20260510030005 65 180 4.3 7.0 0.00 0.00 0.00 61 1028.9
20260510024505 65 180 4.3 7.0 0.00 0.00 0.00 61 1028.9
20260510023005 64 202 5.2 7.8 0.00 0.00 0.00 64 1029.3
20260510021505 64 202 5.2 7.8 0.00 0.00 0.00 64 1029.3
20260510020005 63 157 4.3 6.1 0.00 0.00 0.00 67 1029.6
20260510014505 63 157 4.3 6.1 0.00 0.00 0.00 67 1029.6
20260510013005 61 135 4.3 7.8 0.00 0.00 0.00 71 1029.8
20260510011505 61 135 4.3 7.8 0.00 0.00 0.00 71 1029.8
20260510010005 59 135 2.6 5.2 0.00 0.00 0.00 76 1029.8
20260510004505 59 135 2.6 5.2 0.00 0.00 0.00 76 1029.8
20260510003005 58 135 4.3 6.1 0.00 0.00 0.00 80 1029.9
20260510001505 58 135 4.3 6.1 0.00 0.00 0.00 80 1029.9
20260510000005 55 135 4.3 6.1 0.00 0.00 0.00 84 1030.2
20260509234505 55 135 4.3 6.1 0.00 0.00 0.00 84 1030.2
20260509233005 53 157 6.1 7.8 0.00 0.00 0.00 87 1030.0
20260509231504 53 157 6.1 7.8 0.00 0.00 0.00 87 1030.0
20260509230005 51 157 5.2 6.1 0.00 0.00 0.00 93 1029.8
20260509224504 51 157 5.2 6.1 0.00 0.00 0.00 93 1029.8
20260509223005 49 180 4.3 5.2 0.00 0.00 0.00 97 1029.5
20260509221505 49 180 4.3 5.2 0.00 0.00 0.00 97 1029.5
20260509220005 47 0 0.0 0.0 0.00 0.00 0.00 97 1029.1
20260509214505 47 0 0.0 0.0 0.00 0.00 0.00 97 1029.1
20260509213005 46 0 0.0 0.0 0.00 0.00 0.00 97 1028.9
20260509211504 46 0 0.0 0.0 0.00 0.00 0.00 97 1028.9
20260509210005 43 0 0.0 0.0 0.00 0.00 0.00 97 1028.7
20260509204505 43 0 0.0 0.0 0.00 0.00 0.00 97 1028.7
20260509203004 40 0 0.0 0.0 0.00 0.00 0.00 95 1028.4
20260509201505 40 0 0.0 0.0 0.00 0.00 0.00 95 1028.4
20260509200005 40 292 2.6 4.3 0.00 0.00 0.00 94 1028.1
20260509194505 40 292 2.6 4.3 0.00 0.00 0.00 94 1028.1
20260509193004 41 270 2.6 4.3 0.00 0.00 0.00 94 1027.9
20260509191505 41 270 2.6 4.3 0.00 0.00 0.00 94 1027.9
20260509190006 41 247 2.6 2.6 0.00 0.00 0.00 94 1027.6
20260509184506 41 247 2.6 2.6 0.00 0.00 0.00 94 1027.6
20260509183005 41 270 4.3 4.3 0.00 0.00 0.00 94 1027.7
20260509181504 41 270 4.3 4.3 0.00 0.00 0.00 94 1027.7
20260509180005 41 292 2.6 4.3 0.00 0.00 0.00 92 1027.7
20260509174505 41 292 2.6 4.3 0.00 0.00 0.00 92 1027.7
20260509173005 43 292 2.6 4.3 0.00 0.00 0.00 94 1027.9
20260509171505 43 292 2.6 4.3 0.00 0.00 0.00 94 1027.9
20260509170005 43 270 4.3 5.2 0.00 0.00 0.00 94 1028.0
20260509164505 43 270 4.3 5.2 0.00 0.00 0.00 94 1028.0
20260509163005 43 270 4.3 4.3 0.00 0.00 0.00 93 1028.1
20260509161505 43 270 4.3 4.3 0.00 0.00 0.00 93 1028.1
20260509160005 44 270 4.3 4.3 0.00 0.00 0.00 93 1028.1
20260509154505 44 270 4.3 4.3 0.00 0.00 0.00 93 1028.1
20260509153005 45 247 2.6 4.3 0.00 0.00 0.00 95 1028.2
20260509151505 45 247 2.6 4.3 0.00 0.00 0.00 95 1028.2
20260509150005 45 270 4.3 6.1 0.00 0.00 0.00 92 1028.3
20260509144505 45 270 4.3 6.1 0.00 0.00 0.00 92 1028.3
20260509143005 46 292 0.9 5.2 0.00 0.00 0.00 91 1028.4
20260509141505 46 292 0.9 5.2 0.00 0.00 0.00 91 1028.4
20260509140006 46 247 2.6 4.3 0.00 0.00 0.00 93 1028.4
20260509134505 46 247 2.6 4.3 0.00 0.00 0.00 93 1028.4
20260509133005 45 247 2.6 4.3 0.00 0.00 0.00 91 1028.5
20260509131504 45 247 2.6 4.3 0.00 0.00 0.00 91 1028.5
20260509130005 46 270 4.3 4.3 0.00 0.00 0.00 91 1028.7
20260509124505 46 270 4.3 4.3 0.00 0.00 0.00 91 1028.7
20260509123005 46 0 0.0 0.0 0.00 0.00 0.00 90 1028.6
20260509121505 46 0 0.0 0.0 0.00 0.00 0.00 90 1028.6